Location: Jodlow
(50.1500°N, 16.7500°E)
Time: 05:27:32
(UTC+01:00)

ZACube-1 - Visible Passes

Search period start: 27 February 2024 00:00
Search period end: 08 March 2024 00:00
Orbit: 568 x 642 km, 97.7° (Epoch: 26 February)

Date Brightness Start Highest point End Pass type
(mag) Time Alt. Az. Time Alt. Az. Time Alt. Az.
27 Feb ? 03:02:31 10° NNE 03:02:53 12° NNE 03:02:53 12° NNE visible
28 Feb ? 03:15:14 10° N 03:15:49 14° N 03:15:49 14° N visible
29 Feb ? 03:27:58 10° N 03:28:44 15° N 03:28:44 15° N visible
01 Mar ? 03:40:45 10° N 03:41:41 16° N 03:41:41 16° N visible
02 Mar ? 03:53:33 10° N 03:54:36 16° NNW 03:54:36 16° NNW visible
03 Mar ? 02:30:15 10° NNE 02:30:38 12° NNE 02:30:38 12° NNE visible
03 Mar ? 04:06:25 10° N 04:07:30 16° NNW 04:07:30 16° NNW visible
04 Mar ? 02:42:47 10° NNE 02:43:32 15° NNE 02:43:32 15° NNE visible
04 Mar ? 04:19:21 10° NNW 04:20:24 15° NNW 04:20:24 15° NNW visible
05 Mar ? 02:55:21 10° NNE 02:56:25 18° NNE 02:56:25 18° NNE visible
05 Mar ? 04:32:23 10° NNW 04:33:17 13° NW 04:33:17 13° NW visible
06 Mar ? 03:07:58 10° NNE 03:09:19 20° NNE 03:09:19 20° NNE visible
06 Mar ? 04:45:40 10° NNW 04:46:10 11° NW 04:46:10 11° NW visible
07 Mar ? 03:20:36 10° N 03:22:10 22° N 03:22:10 22° N visible
